SCOUT X-4 DEB

Satellite information

Favourite Embed

Satellite Type and Status

DEBRISIN ORBIT

Key statistics

Satellite SCOUT X-4 DEB at a glance.

Uptime

22422

Days in orbit

Revolutions

≈ 14.1

Per day

Orbit

SSO

Sun Synchronous Orbit

Inclination

90.5

Latest

Satellite identification and parameters

Extended collection of information and parameters for SCOUT X-4 DEB.

Object identification

Identified? True

Debris? True

Object name: SCOUT X-4 DEB

International designator: 1964-026E

Object number (NORAD): 2986

Object ID (CCSDS): 2986

Country: UNITED STATES OF AMERICA (US)

Current information (Y/N): Y

RCS size: SMALL

Orbital parameters

Period: 102.388 minutes

Inclination: 90.4758 deg

SMA: 7249.81 km

Apoapsis: 903.718 km

Periapsis: 839.632 km

RAAN: 179.8647 deg

Eccentricy: 0.00441985

Argument of periapsis: 257.2944 deg

Mean anomaly: 102.3296 deg

Mean motion: 14.06412835 rev/day

Mean motion (dot): 0.00000427 rev/day2

B* drag term: 0.00025102402 1/REarth

Two-line elements (TLE)

Creation date: Oct. 24, 2025, 2:48 a.m.

Reference frame: TEME

Reference center: EARTH

Epoch: Oct. 23, 2025, 4:20 p.m. UTC

TLE line 0: 0 SCOUT X-4 DEB

TLE line 1: 1 02986U 64026E 25296.68069657 .00000427 00000-0 25102-3 0 9990

TLE line 2: 2 02986 90.4758 179.8647 0044198 257.2944 102.3296 14.06412835141228

Live tracking on map

Real-time ground track for satellite SCOUT X-4 DEB.

In-orbit conjunctions

A list of the most updated potential collisions computed for object SCOUT X-4 DEB.

Target Orbit TCA Probability of collision Miss distance Type
CZ-6A DEB LEO 2024-11-16 04:04:56 0.0005432793 270.0 (m) DEBRIS
CZ-6A DEB LEO 2024-11-09 23:04:43 0.0007438606 241.0 (m) DEBRIS
FENGYUN 1C DEB SSO 2024-10-24 08:40:01 0.000843003 55.0 (m) DEBRIS

Associated space launch

The KH-4A (Keyhole-4A) was the fifth optical reconnaissance satellite version in the Corona-program.

SCOUT X-4 DEB was lifted into orbit during the mission ‘Thor SLV-2A Agena D | KH-4A 6’, on board a Thor SLV-2A Agena D space rocket.

The launch took place on June 4, 1964, 10:59 p.m. from Space Launch Complex 3W.

For more information about the launch, click the button.

Launch to space Thor SLV-2A Agena D | KH-4A 6
Thor SLV-2A Agena D | KH-4A 6

Agency: N/A

Status: Launch Successful

Launch date: June 4, 1964, 10:59 p.m. UTC

Rocket: Thor SLV-2A Agena D

Launch pad: Space Launch Complex 3W

Location: Vandenberg SFB, CA, USA

...

Latest news about this satellite

There are no fresh news available about this satellite. Check back as we update our databases every day.


Newsletter sign-up

Weekly statistics, charts and insights to help you stay on top of the space industry.